Newark, NJ

5:57 AM EDT on May 21, 2018 (GMT -0400)
Newark International

Weather History for KEWR - August, 2013

Change the Weather History Date:

Wednesday, August 28, 2013

  Actual Average Record
Temperature  
Mean Temperature 79 °F 74 °F  
Max Temperature 86 °F 82 °F 102 °F (1948)
Min Temperature 71 °F 66 °F 51 °F (1941)
Degree Days  
Heating Degree Days 0 0  
Month to date heating degree days 0 0  
Since 1 June heating degree days 8 17  
Since 1 July heating degree days 0 0  
Cooling Degree Days 14 9  
Month to date cooling degree days 268 309  
Year to date cooling degree days 1132 1007  
Since 1 June cooling degree days 1032 931  
Growing Degree Days 28 (Base 50)    
Moisture  
Dew Point 70 °F    
Average Humidity 77    
Maximum Humidity 93    
Minimum Humidity 61    
Precipitation  
Precipitation 1.34 in 0.10 in 5.22 in (2011)
Month to date precipitation 4.57 3.42  
Year to date precipitation 33.30 31.09  
Snow  
Snow 0.00 in 0.00 in 0.00 in (2002)
Month to date snowfall 0.0 0.0  
Since 1 July snowfall 0.0 0.0  
Snow Depth 0.00 in    
Sea Level Pressure  
Sea Level Pressure 29.87 in    
Wind  
Wind Speed 3 mph (NE)    
Max Wind Speed 16 mph    
Max Gust Speed 24 mph    
Visibility 7 miles    
Events Rain , Thunderstorm    
T = Trace of Precipitation, MM = Missing Value Source: NWS Daily Summary

Daily Weather History Graph

Daily Weather History Graph

Search for Another Location

Airport or City:

Astronomy

Aug. 28, 2013 Rise Set
Actual Time 6:20 AM EDT 7:34 PM EDT
Civil Twilight 5:51 AM EDT 8:03 PM EDT
Nautical Twilight 5:17 AM EDT 8:36 PM EDT
Astronomical Twilight 4:42 AM EDT 9:12 PM EDT
Moon No Moon Rise 2:11 PM EDT (8/28)
Length of Visible Light 14h 11m
Length of Day
13h 14m
Waning Gibbous, 47% of the Moon is Illuminated
Aug 28
Waning Gibbous
Sep 5
New
Sep 12
First Quarter
Sep 19
Full
Sep 26
Last Quarter

Hourly Weather History & Observations

Time (EDT) Temp. Heat Index Dew Point Humidity Pressure Visibility Wind Dir Wind Speed Gust Speed Precip Events Conditions
12:51 AM 79.0 °F - 66.0 °F 64% 29.90 in 10.0 mi Calm Calm - N/A   Scattered Clouds
1:51 AM 78.1 °F - 66.9 °F 68% 29.87 in 10.0 mi Calm Calm - N/A   Scattered Clouds
2:51 AM 75.9 °F - 66.0 °F 71% 29.87 in 10.0 mi Calm Calm - N/A   Clear
3:51 AM 73.9 °F - 68.0 °F 82% 29.86 in 10.0 mi Calm Calm - N/A   Scattered Clouds
4:51 AM 73.9 °F - 68.0 °F 82% 29.86 in 10.0 mi Calm Calm - N/A   Scattered Clouds
5:51 AM 73.0 °F - 69.1 °F 87% 29.87 in 10.0 mi NNE 4.6 mph - N/A   Scattered Clouds
6:51 AM 72.0 °F - 69.1 °F 91% 29.88 in 10.0 mi NNE 5.8 mph - N/A   Mostly Cloudy
7:51 AM 75.9 °F - 69.1 °F 79% 29.88 in 8.0 mi North 3.5 mph - N/A   Scattered Clouds
8:51 AM 79.0 °F - 69.1 °F 72% 29.87 in 8.0 mi Calm Calm - N/A   Mostly Cloudy
9:51 AM 82.9 °F 86.5 °F 69.1 °F 63% 29.87 in 8.0 mi Calm Calm - N/A   Mostly Cloudy
10:51 AM 84.0 °F 87.8 °F 69.1 °F 61% 29.88 in 8.0 mi Variable 4.6 mph - N/A   Mostly Cloudy
11:51 AM 82.9 °F 86.5 °F 69.1 °F 63% 29.87 in 9.0 mi South 9.2 mph - 0.00 in Rain Light Rain
11:54 AM 82.4 °F 85.4 °F 68.0 °F 62% 29.87 in 9.0 mi South 6.9 mph - 0.00 in Rain , Thunderstorm Light Thunderstorms and Rain
12:17 PM 82.4 °F 86.3 °F 69.8 °F 66% 29.86 in 5.0 mi SSE 5.8 mph - 0.00 in Rain , Thunderstorm Light Thunderstorms and Rain
12:45 PM 80.6 °F 83.9 °F 69.8 °F 70% 29.86 in 7.0 mi ESE 8.1 mph - 0.01 in Rain Light Rain
12:51 PM 80.1 °F 83.2 °F 70.0 °F 71% 29.87 in 7.0 mi East 5.8 mph - 0.01 in Rain Light Rain
1:23 PM 78.8 °F - 69.8 °F 74% 29.87 in 5.0 mi Variable 6.9 mph - 0.00 in Rain , Thunderstorm Light Thunderstorms and Rain
1:29 PM 75.2 °F - 71.6 °F 89% 29.88 in 1.5 mi West 16.1 mph 19.6 mph 0.00 in Rain , Thunderstorm Light Thunderstorms and Rain
1:51 PM 73.0 °F - 69.1 °F 87% 29.89 in 1.5 mi Calm Calm - 0.05 in Rain , Thunderstorm Thunderstorms and Rain
2:39 PM 73.4 °F - 71.6 °F 94% 29.87 in 4.0 mi Calm Calm - 1.18 in Rain , Thunderstorm Thunderstorms and Rain
2:49 PM 73.4 °F - 71.6 °F 94% 29.88 in 4.0 mi Calm Calm - 1.20 in Rain Rain
2:51 PM 73.0 °F - 71.1 °F 93% 29.88 in 4.0 mi Calm Calm - 1.21 in Rain Rain
3:51 PM 75.0 °F - 72.0 °F 90% 29.86 in 7.0 mi WSW 6.9 mph - 0.07 in Rain Light Rain
4:51 PM 75.9 °F - 71.1 °F 85% 29.86 in 8.0 mi Calm Calm - 0.00 in Rain Light Rain
5:51 PM 77.0 °F - 70.0 °F 79% 29.85 in 9.0 mi Variable 5.8 mph - 0.00 in   Overcast
6:51 PM 75.9 °F - 70.0 °F 82% 29.86 in 9.0 mi NNE 4.6 mph - N/A   Mostly Cloudy
7:51 PM 75.0 °F - 71.1 °F 87% 29.86 in 8.0 mi NE 3.5 mph - N/A   Mostly Cloudy
8:51 PM 75.9 °F - 72.0 °F 87% 29.87 in 8.0 mi NNE 6.9 mph - N/A   Mostly Cloudy
9:51 PM 75.9 °F - 71.1 °F 85% 29.89 in 9.0 mi NNE 6.9 mph - 0.00 in Rain Light Rain
10:51 PM 75.0 °F - 72.0 °F 90% 29.89 in 9.0 mi Calm Calm - 0.00 in   Mostly Cloudy
11:51 PM 73.0 °F - 71.1 °F 93% 29.89 in 9.0 mi NNE 5.8 mph - N/A   Mostly Cloudy